Location: Newark
(15.4608°S, 41.1635°W)
Time: 09:36:47
(UTC+00:00)

Vanguard 3 - Pass Details

Date: 03 August 2021
Orbit: 510 x 3260 km, 33.3° (Epoch: 22 September)

Event Time Altitude Azimuth Distance (km) Brightness Sun altitude
Rises 01:42:27 0° 337° (NNW) 7,194 12.1 -73.5°
Reaches altitude 10° 01:50:52 10° 356° (N) 5,959 11.5 -75.5°
Enters shadow 01:51:43 11° 358° (N) 5,845 11.4 -75.7°
Maximum altitude 02:00:06 16° 27° (NNE) 4,963 - -77.7°
Drops below altitude 10° 02:07:43 10° 59° (ENE) 4,852 - -79.5°
Sets 02:13:07 0° 79° (E) 5,319 - -80.7°
